Location: Terre Du Lac
(37.9120°N, 90.6250°W)
Time: 00:22:44
(UTC-05:00)

Hubble Space Telescope - Visible Passes

Search period start: 26 March 2017 00:00
Search period end: 05 April 2017 00:00
Orbit: 538 x 542 km, 28.5° (Epoch: 24 March)

Date Brightness Start Highest point End Pass type
(mag) Time Alt. Az. Time Alt. Az. Time Alt. Az.
26 Mar 2.9 06:00:15 10° SSW 06:02:54 17° SSE 06:05:33 10° SE visible
27 Mar 2.7 05:50:22 12° SSW 05:52:48 18° S 05:55:41 10° SE visible
28 Mar 2.6 05:40:53 15° SSW 05:42:42 20° S 05:45:44 10° SE visible
29 Mar 2.4 05:31:23 18° SSW 05:32:36 21° S 05:35:44 10° SE visible
30 Mar 2.3 05:21:52 21° S 05:22:30 22° S 05:25:42 10° SE visible
31 Mar 2.3 05:12:23 22° S 05:12:25 22° S 05:15:37 10° SE visible
01 Apr 2.5 05:02:56 21° S 05:02:56 21° S 05:05:30 10° SE visible
02 Apr 2.7 04:53:32 18° SSE 04:53:32 18° SSE 04:55:21 10° SE visible
03 Apr 3.1 04:44:12 14° SSE 04:44:12 14° SSE 04:45:09 10° SE visible
